Location: Waco, TX
(31.5480°N, 97.1670°W)
Time: 13:00:40
(UTC-05:00)

ISS - All Passes

Search period start: 28 April 2017 00:00
Search period end: 08 May 2017 00:00
Orbit: 401 x 409 km, 51.6° (Epoch: 29 April)

Date Brightness Start Highest point End Pass type
(mag) Time Alt. Az. Time Alt. Az. Time Alt. Az.
28 Apr - 07:32:54 10° SSW 07:35:59 41° SE 07:39:05 10° ENE daylight
28 Apr - 09:10:36 10° WNW 09:12:37 15° NW 09:14:38 10° N daylight
28 Apr - 15:40:53 10° NW 15:44:05 53° NE 15:47:16 10° ESE daylight
29 Apr - 06:41:43 10° S 06:44:05 19° SE 06:46:27 10° E daylight
29 Apr - 08:17:34 10° W 08:20:24 27° NW 08:23:15 10° NNE daylight
29 Apr - 14:49:10 10° NNW 14:51:57 26° NE 14:54:45 10° E daylight
29 Apr - 16:25:51 10° WNW 16:28:19 20° SW 16:30:46 10° S daylight
30 Apr - 07:25:04 10° SW 07:28:17 57° NW 07:31:31 10° NE daylight
30 Apr - 13:57:50 10° N 13:59:44 14° NE 14:01:38 10° ENE daylight
30 Apr - 15:33:15 10° WNW 15:36:22 45° SW 15:39:30 10° SSE daylight
01 May - 06:33:02 10° SSW 06:36:14 58° SE 06:39:27 10° NE daylight
01 May - 08:11:29 10° WNW 08:12:59 12° NNW 08:14:29 10° N daylight
01 May - 14:41:06 10° NW 14:44:21 74° NE 14:47:36 10° SE daylight
02 May - 05:41:32 10° S 05:44:16 25° SE 05:47:00 10° ENE visible
02 May - 07:18:05 10° W 07:20:42 22° NW 07:23:18 10° NNE daylight
02 May - 13:49:15 10° NNW 13:52:14 33° NE 13:55:12 10° ESE daylight
02 May - 15:26:32 10° W 15:28:29 15° SW 15:30:25 10° SSW daylight
03 May - 04:51:09 10° SSE 04:52:21 12° SE 04:53:33 10° ESE visible
03 May - 06:25:23 10° WSW 06:28:31 42° NW 06:31:38 10° NNE daylight
03 May - 12:57:41 10° N 13:00:01 18° NE 13:02:19 10° E daylight
03 May - 14:33:35 10° WNW 14:36:32 32° SW 14:39:29 10° SSE daylight
04 May - 05:33:08 10° SW 05:36:23 82° SE 05:39:39 10° NE visible
04 May - 07:12:43 10° NW 07:13:15 10° NNW 07:13:46 10° NNW daylight
04 May - 12:07:01 10° NNE 12:07:40 10° NNE 12:08:18 10° NE daylight
04 May - 13:41:16 10° NW 13:44:30 80° SW 13:47:44 10° SE daylight
05 May - 04:41:21 10° SSW 04:44:20 33° SE 04:47:20 10° ENE visible
05 May - 06:18:36 10° W 06:20:53 18° NW 06:23:11 10° N daylight
05 May - 12:49:15 10° NNW 12:52:23 43° NE 12:55:29 10° ESE daylight
05 May - 14:27:29 10° WSW 14:28:31 11° SW 14:29:32 10° SW daylight
06 May - 03:50:20 10° SSE 03:52:22 15° SE 03:54:24 10° E visible
06 May - 05:25:38 10° WSW 05:28:37 32° NW 05:31:36 10° NNE visible
06 May - 11:57:31 10° NNW 12:00:08 22° NE 12:02:45 10° E daylight
06 May - 13:33:52 10° WNW 13:36:34 24° SW 13:39:15 10° S daylight
07 May - 04:33:10 10° SW 04:36:26 72° NW 04:39:42 10° NE visible
07 May - 11:06:16 10° N 11:07:48 13° NNE 11:09:19 10° ENE daylight
07 May - 12:41:20 10° NW 12:44:31 57° SW 12:47:42 10° SSE daylight
